Location: Malvern Link
(52.1333°N, 2.3000°W)
Time: 12:25:01
(UTC+00:00)

Envisat - Pass Details

Date: 24 January 2022
Orbit: 764 x 765 km, 98.2° (Epoch: 22 May)

Event Time Altitude Azimuth Distance (km) Brightness Sun altitude
Rises 05:29:25 0° 13° (NNE) 3,244 6.4 -22.9°
Reaches altitude 10° 05:31:44 10° 12° (NNE) 2,314 5.6 -22.6°
Maximum altitude 05:36:50 76° 288° (WNW) 795 2.8 -21.8°
Drops below altitude 10° 05:41:53 10° 203° (SSW) 2,298 5.3 -21.0°
Sets 05:44:11 0° 202° (SSW) 3,220 6.1 -20.7°
